Location: Miami, Florida
(25.6830°N, 80.1700°W)
Time: 01:35:13
(UTC-04:00)

Vanguard 1 - All Passes

Search period start: 24 November 2017 00:00
Search period end: 04 December 2017 00:00
Orbit: 650 x 3834 km, 34.2° (Epoch: 23 November)

Date Brightness Start Highest point End Pass type
(mag) Time Alt. Az. Time Alt. Az. Time Alt. Az.
24 Nov - 11:54:40 10° SSW 12:04:45 21° SSE 12:11:44 10° ESE daylight
24 Nov - 14:16:28 10° SW 14:27:42 59° SSE 14:33:53 10° ENE daylight
24 Nov - 16:41:42 10° W 16:48:34 46° NNW 16:53:10 10° ENE daylight
24 Nov - 19:05:22 10° WNW 19:09:32 30° N 19:13:34 10° ENE visible
24 Nov - 21:25:25 10° WNW 21:29:57 85° SSW 21:36:25 10° ESE visible
24 Nov - 23:46:17 10° WSW 23:50:55 21° SSW 23:57:31 10° SSE night (unlit)
25 Nov - 12:14:11 10° SSW 12:26:25 29° SSE 12:34:04 10° E daylight
25 Nov - 14:37:46 10° WSW 14:48:53 79° SSE 14:54:55 10° ENE daylight
25 Nov - 17:03:34 10° W 17:09:44 38° NNW 17:14:06 10° NE daylight
25 Nov - 19:26:31 10° NW 19:30:45 36° NNE 19:35:04 10° E visible
25 Nov - 21:46:27 10° WNW 21:50:58 55° SSW 21:57:32 10° SE visible
26 Nov - 00:09:05 10° SW 00:12:22 14° SSW 00:16:28 10° S night (unlit)
26 Nov - 10:16:39 10° S 10:23:13 13° SSE 10:28:43 10° SE daylight
26 Nov - 12:34:23 10° SSW 12:47:59 39° SSE 12:55:49 10° E daylight
26 Nov - 14:59:23 10° WSW 15:10:01 81° NNW 15:15:51 10° ENE daylight
26 Nov - 17:25:23 10° WNW 17:30:59 33° N 17:35:09 10° ENE daylight
26 Nov - 19:47:33 10° WNW 19:51:55 48° NNE 19:56:33 10° E visible
26 Nov - 22:07:42 10° W 22:12:03 35° SSW 22:18:17 10° SE visible
27 Nov - 10:33:53 10° S 10:45:13 19° SSE 10:53:28 10° ESE daylight
27 Nov - 12:55:07 10° SW 13:09:24 52° SSE 13:17:10 10° ENE daylight
27 Nov - 15:21:15 10° WSW 15:31:08 63° NNW 15:36:45 10° ENE daylight
27 Nov - 17:47:03 10° WNW 17:52:16 32° N 17:56:19 10° ENE daylight
27 Nov - 20:08:33 10° WNW 20:12:58 70° NNE 20:17:56 10° ESE visible
27 Nov - 22:29:17 10° W 22:33:13 23° SSW 22:38:32 10° SSE night (unlit)
28 Nov - 10:52:54 10° SSW 11:07:03 27° SSE 11:16:23 10° E daylight
28 Nov - 13:16:15 10° SW 13:30:44 67° SSE 13:38:20 10° ENE daylight
28 Nov - 15:43:16 10° W 15:52:18 51° NNW 15:57:39 10° ENE daylight
28 Nov - 18:08:32 10° WNW 18:13:34 34° N 18:17:37 10° ENE daylight
28 Nov - 20:29:34 10° WNW 20:33:58 76° SSW 20:39:07 10° ESE visible
28 Nov - 22:51:41 10° WSW 22:54:29 14° SSW 22:57:53 10° S night (unlit)
29 Nov - 08:58:46 10° SSE 09:02:43 11° SSE 09:06:22 10° SE daylight
29 Nov - 11:12:45 10° SSW 11:28:44 36° SSE 11:38:28 10° E daylight
29 Nov - 13:37:45 10° WSW 13:51:59 84° SSE 13:59:21 10° ENE daylight
29 Nov - 16:05:19 10° W 16:13:32 43° NNW 16:18:36 10° ENE daylight
29 Nov - 18:29:50 10° WNW 18:34:49 39° N 18:38:59 10° E daylight
29 Nov - 20:50:44 10° WNW 20:54:56 46° SSW 21:00:00 10° SE visible
30 Nov - 09:13:33 10° S 09:24:54 17° SE 09:33:55 10° ESE daylight
30 Nov - 11:33:10 10° SW 11:50:18 46° SSE 12:00:05 10° E daylight
30 Nov - 13:59:35 10° WSW 14:13:12 79° NNW 14:20:18 10° ENE daylight
30 Nov - 16:27:20 10° WNW 16:34:50 38° N 16:39:39 10° ENE daylight
30 Nov - 18:51:00 10° WNW 18:56:00 52° NNE 19:00:18 10° E visible
30 Nov - 21:12:09 10° W 21:15:57 27° SSW 21:20:29 10° SSE visible
01 Dec - 09:31:49 10° S 09:46:51 24° SE 09:57:45 10° E daylight
01 Dec - 11:54:03 10° SW 12:11:47 59° SSE 12:21:25 10° ENE daylight
01 Dec - 14:21:38 10° WSW 14:34:25 65° NNW 14:41:13 10° ENE daylight
01 Dec - 16:49:11 10° WNW 16:56:10 37° N 17:00:47 10° ENE daylight
01 Dec - 19:12:08 10° WNW 19:17:04 77° NNE 19:21:31 10° ESE visible
01 Dec - 21:34:08 10° WSW 21:37:00 16° SSW 21:40:17 10° S visible
02 Dec - 09:51:10 10° SSW 10:08:39 32° SSE 10:20:23 10° E daylight
02 Dec - 12:15:20 10° SW 12:33:11 73° SSE 12:42:34 10° ENE daylight
02 Dec - 14:43:52 10° W 14:55:42 55° NNW 15:02:10 10° ENE daylight
02 Dec - 17:10:53 10° WNW 17:17:30 40° N 17:22:01 10° ENE daylight
02 Dec - 19:33:18 10° WNW 19:38:04 67° SSW 19:42:31 10° SE visible
03 Dec - 07:54:47 10° SSE 08:03:56 14° SE 08:12:02 10° ESE daylight
03 Dec - 10:11:11 10° SSW 10:30:19 42° SSE 10:42:22 10° E daylight
03 Dec - 12:36:59 10° WSW 12:54:32 88° SSE 13:03:36 10° ENE daylight
03 Dec - 15:06:08 10° W 15:17:02 48° NNW 15:23:09 10° ENE daylight
03 Dec - 17:32:22 10° WNW 17:38:49 46° N 17:43:17 10° E daylight
03 Dec - 19:54:36 10° W 19:58:57 39° SSW 20:03:12 10° SE visible
